STARLINK-4510 (53405 NORAD) Tracking and Keplerian Element Data

This shows tracking and keplerian element data for the satellite.

Feedback or suggestion? Click here.




ElementValue
Catalog53405
NameSTARLINK-4510
Epoch Orbit1661
Epoch Day324.75395627
Epoch Year2022
RAAN133.2842
Inclination53.2189
Eccentricity0.0001803
Argument of Perigee64.5151
Mean Anonmoly295.6027
Mean Motion15.08836763
Decay Rate-3.57E-06
L11 53405U 22097T 22324.75395627 -.00000357 00000+0 -43591-5 0 9997
L22 53405 53.2189 133.2842 0001803 64.5151 295.6027 15.08836763 16616



Live tracking and technical data element details for STARLINK-4510 (NORAD 53405). STARLINK-4510 can be tracked NOW for your location showing map with azimuth and elevation plus other details from your city location.







IsCatalogInMostPopularTable: catalog: 53405, numindb: 8
Update: records affected: 1



GetName: 53405 STARLINK-4510

Hit Count: updated at: Thu, 08 Dec 2022 09:16:40 GMT